TimeCDT,TemperatureF,Dew PointF,Humidity,Sea Level PressureIn,VisibilityMPH,Wind Direction,Wind SpeedMPH,Gust SpeedMPH,PrecipitationIn,Events,Conditions,WindDirDegrees,DateUTC
12:15 AM,74.7,68.4,81,29.89,10.0,SE,5.8,-,N/A,,Clear,140,2012-10-26 05:15:00
12:35 AM,74.1,68.4,82,29.89,10.0,SE,4.6,-,N/A,,Clear,140,2012-10-26 05:35:00
12:55 AM,73.6,68.2,83,29.89,10.0,Calm,Calm,-,N/A,,Scattered Clouds,0,2012-10-26 05:55:00
1:35 AM,73.0,68.0,84,29.90,10.0,Calm,Calm,-,N/A,,Overcast,0,2012-10-26 06:35:00
1:55 AM,72.9,68.0,85,29.90,10.0,Calm,Calm,-,N/A,,Mostly Cloudy,0,2012-10-26 06:55:00
2:15 AM,72.9,67.8,84,29.90,10.0,Calm,Calm,-,N/A,,Mostly Cloudy,0,2012-10-26 07:15:00
2:35 AM,72.5,67.6,85,29.90,10.0,Calm,Calm,-,N/A,,Mostly Cloudy,0,2012-10-26 07:35:00
2:55 AM,72.0,67.3,85,29.90,10.0,Calm,Calm,-,N/A,,Mostly Cloudy,0,2012-10-26 07:55:00
3:15 AM,72.0,67.3,85,29.90,10.0,Calm,Calm,-,N/A,,Mostly Cloudy,0,2012-10-26 08:15:00
3:35 AM,71.6,67.1,86,29.90,10.0,Calm,Calm,-,N/A,,Mostly Cloudy,0,2012-10-26 08:35:00
3:55 AM,71.6,67.1,86,29.90,10.0,Calm,Calm,-,N/A,,Mostly Cloudy,0,2012-10-26 08:55:00
4:15 AM,71.4,67.1,86,29.90,10.0,Calm,Calm,-,N/A,,Mostly Cloudy,0,2012-10-26 09:15:00
4:35 AM,70.7,66.7,87,29.89,10.0,Calm,Calm,-,N/A,,Scattered Clouds,0,2012-10-26 09:35:00
4:55 AM,70.0,66.4,88,29.89,10.0,Calm,Calm,-,N/A,,Mostly Cloudy,0,2012-10-26 09:55:00
5:15 AM,69.8,66.2,88,29.89,10.0,Calm,Calm,-,N/A,,Overcast,0,2012-10-26 10:15:00
5:35 AM,69.8,66.2,88,29.90,10.0,Calm,Calm,-,N/A,,Overcast,0,2012-10-26 10:35:00
5:55 AM,70.2,66.4,88,29.90,10.0,Calm,Calm,-,N/A,,Overcast,0,2012-10-26 10:55:00
6:15 AM,70.0,66.2,88,29.91,10.0,East,4.6,-,N/A,,Scattered Clouds,100,2012-10-26 11:15:00
6:35 AM,69.6,66.2,89,29.91,10.0,East,5.8,-,N/A,,Scattered Clouds,100,2012-10-26 11:35:00
6:55 AM,69.1,66.0,90,29.91,10.0,East,3.5,-,N/A,,Mostly Cloudy,90,2012-10-26 11:55:00
7:35 AM,69.1,65.8,89,29.93,10.0,ENE,3.5,-,N/A,,Mostly Cloudy,60,2012-10-26 12:35:00
7:55 AM,68.9,65.8,90,29.95,10.0,NNE,4.6,-,N/A,,Mostly Cloudy,30,2012-10-26 12:55:00
8:35 AM,65.5,59.4,81,29.99,10.0,NNE,13.8,21.9,N/A,,Overcast,20,2012-10-26 13:35:00
8:55 AM,62.4,57.2,83,30.00,10.0,NNE,16.1,23.0,N/A,,Overcast,30,2012-10-26 13:55:00
9:15 AM,60.3,57.2,90,30.02,4.0,North,10.4,-,0.01,,Overcast,10,2012-10-26 14:15:00
10:15 AM,59.7,57.2,91,30.04,10.0,NNE,9.2,-,N/A,,Overcast,20,2012-10-26 15:15:00
10:35 AM,60.6,57.7,90,30.04,10.0,NNE,11.5,17.3,N/A,,Overcast,30,2012-10-26 15:35:00
10:55 AM,62.1,57.7,86,30.04,10.0,NNE,9.2,-,N/A,,Overcast,20,2012-10-26 15:55:00
11:15 AM,62.1,57.6,85,30.04,10.0,North,10.4,-,N/A,,Overcast,10,2012-10-26 16:15:00
11:35 AM,62.6,57.4,83,30.05,10.0,North,10.4,-,N/A,,Overcast,10,2012-10-26 16:35:00
12:15 PM,63.5,55.9,76,30.06,10.0,North,11.5,17.3,N/A,,Overcast,10,2012-10-26 17:15:00
12:35 PM,63.7,55.6,75,30.06,10.0,NNE,12.7,18.4,N/A,,Overcast,30,2012-10-26 17:35:00
1:15 PM,64.4,54.5,70,30.05,10.0,North,16.1,21.9,N/A,,Overcast,10,2012-10-26 18:15:00
1:35 PM,64.4,54.0,69,30.05,10.0,NNE,12.7,17.3,N/A,,Overcast,20,2012-10-26 18:35:00
1:55 PM,64.6,53.8,68,30.04,10.0,NNE,10.4,18.4,N/A,,Overcast,20,2012-10-26 18:55:00
2:15 PM,65.1,53.6,66,30.04,10.0,North,12.7,20.7,N/A,,Overcast,350,2012-10-26 19:15:00
2:35 PM,65.3,53.1,65,30.03,10.0,NNE,11.5,-,N/A,,Overcast,20,2012-10-26 19:35:00
2:55 PM,65.3,52.5,63,30.02,10.0,North,11.5,17.3,N/A,,Overcast,10,2012-10-26 19:55:00
3:15 PM,65.5,51.3,60,30.03,10.0,NNW,12.7,16.1,N/A,,Overcast,340,2012-10-26 20:15:00
3:35 PM,65.7,51.1,59,30.03,10.0,North,13.8,-,N/A,,Overcast,10,2012-10-26 20:35:00
3:55 PM,66.2,50.4,57,30.03,10.0,North,15.0,19.6,N/A,,Overcast,360,2012-10-26 20:55:00
4:15 PM,66.2,50.2,56,30.03,10.0,North,15.0,19.6,N/A,,Overcast,10,2012-10-26 21:15:00
4:55 PM,64.6,48.4,56,30.05,10.0,North,13.8,21.9,N/A,,Overcast,360,2012-10-26 21:55:00
5:15 PM,63.7,47.3,55,30.06,10.0,North,12.7,21.9,N/A,,Overcast,360,2012-10-26 22:15:00
5:35 PM,62.8,47.5,57,30.06,10.0,North,12.7,23.0,N/A,,Overcast,360,2012-10-26 22:35:00
5:55 PM,61.7,47.3,59,30.07,10.0,NNW,13.8,20.7,N/A,,Overcast,340,2012-10-26 22:55:00
6:15 PM,59.0,47.1,65,30.09,10.0,North,12.7,23.0,N/A,,Overcast,350,2012-10-26 23:15:00
6:35 PM,57.2,47.7,70,30.10,10.0,North,16.1,21.9,N/A,,Overcast,350,2012-10-26 23:35:00
6:55 PM,55.9,48.7,77,30.11,10.0,North,15.0,20.7,N/A,,Overcast,350,2012-10-26 23:55:00
7:15 PM,54.0,48.2,81,30.12,10.0,North,13.8,21.9,N/A,,Overcast,360,2012-10-27 00:15:00
7:35 PM,53.8,48.2,81,30.13,10.0,North,12.7,19.6,N/A,,Overcast,350,2012-10-27 00:35:00
7:55 PM,53.6,47.8,81,30.14,10.0,North,12.7,-,N/A,,Overcast,350,2012-10-27 00:55:00
8:15 PM,53.8,47.8,80,30.15,10.0,North,10.4,16.1,N/A,,Overcast,360,2012-10-27 01:15:00
8:35 PM,54.0,48.2,81,30.16,10.0,North,8.1,-,N/A,,Overcast,360,2012-10-27 01:35:00
8:55 PM,54.1,48.0,80,30.17,10.0,North,9.2,-,N/A,,Overcast,350,2012-10-27 01:55:00
9:15 PM,54.5,48.0,79,30.17,10.0,North,10.4,16.1,N/A,,Overcast,360,2012-10-27 02:15:00
9:35 PM,54.5,48.0,79,30.19,10.0,North,10.4,16.1,N/A,,Overcast,350,2012-10-27 02:35:00
9:55 PM,54.7,48.2,79,30.19,10.0,NNW,6.9,-,N/A,,Overcast,340,2012-10-27 02:55:00
10:15 PM,54.7,48.2,79,30.21,10.0,NNW,9.2,-,N/A,,Overcast,330,2012-10-27 03:15:00
10:35 PM,54.9,48.2,78,30.20,10.0,NNW,8.1,-,N/A,,Overcast,340,2012-10-27 03:35:00
10:55 PM,55.0,48.2,78,30.21,10.0,NNW,8.1,-,N/A,,Overcast,340,2012-10-27 03:55:00
11:35 PM,55.4,48.2,77,30.20,10.0,North,10.4,-,N/A,,Overcast,350,2012-10-27 04:35:00
11:55 PM,55.6,48.4,77,30.20,10.0,North,6.9,-,N/A,,Overcast,350,2012-10-27 04:55:00